Year,Month,Day,Hour,Minute,Value (Times are PST for temperature in C)
2011,01,12,00,00,1.30
2011,01,12,00,01,1.30
2011,01,12,00,02,1.30
2011,01,12,00,03,1.30
2011,01,12,00,04,1.30
2011,01,12,00,05,1.30
2011,01,12,00,06,1.30
2011,01,12,00,07,1.30
2011,01,12,00,08,1.30
2011,01,12,00,09,1.30
2011,01,12,00,10,1.30
2011,01,12,00,11,1.30
2011,01,12,00,12,1.30
2011,01,12,00,13,1.30
2011,01,12,00,14,1.40
2011,01,12,00,15,1.40
2011,01,12,00,16,1.40
2011,01,12,00,17,1.40
2011,01,12,00,18,1.40
2011,01,12,00,19,1.40
2011,01,12,00,20,1.40
2011,01,12,00,21,1.50
2011,01,12,00,22,1.50
2011,01,12,00,23,1.50
2011,01,12,00,24,1.50
2011,01,12,00,25,1.60
2011,01,12,00,26,1.60
2011,01,12,00,27,1.60
2011,01,12,00,28,1.60
2011,01,12,00,29,1.60
2011,01,12,00,30,1.60
2011,01,12,00,31,1.70
2011,01,12,00,32,1.70
2011,01,12,00,33,1.70
2011,01,12,00,34,1.70
2011,01,12,00,35,1.70
2011,01,12,00,36,1.80
2011,01,12,00,37,1.80
2011,01,12,00,38,1.80
2011,01,12,00,39,1.80
2011,01,12,00,40,1.80
2011,01,12,00,41,1.80
2011,01,12,00,42,1.80
2011,01,12,00,43,1.80
2011,01,12,00,44,1.80
2011,01,12,00,45,1.80
2011,01,12,00,46,1.80
2011,01,12,00,47,1.90
2011,01,12,00,48,1.90
2011,01,12,00,49,1.90
2011,01,12,00,50,1.90
2011,01,12,00,51,1.90
2011,01,12,00,52,1.90
2011,01,12,00,53,1.90
2011,01,12,00,54,2.00
2011,01,12,00,55,2.00
2011,01,12,00,56,2.00
2011,01,12,00,57,2.00
2011,01,12,00,58,2.00
2011,01,12,00,59,2.10
2011,01,12,01,00,2.10
2011,01,12,01,01,2.10
2011,01,12,01,02,2.10
2011,01,12,01,03,2.10
2011,01,12,01,04,2.10
2011,01,12,01,05,2.10
2011,01,12,01,06,2.10
2011,01,12,01,07,2.10
2011,01,12,01,08,2.10
2011,01,12,01,09,2.20
2011,01,12,01,10,2.20
2011,01,12,01,11,2.20
2011,01,12,01,12,2.20
2011,01,12,01,13,2.20
2011,01,12,01,14,2.20
2011,01,12,01,15,2.20
2011,01,12,01,16,2.30
2011,01,12,01,17,2.30
2011,01,12,01,18,2.30
2011,01,12,01,19,2.30
2011,01,12,01,20,2.30
2011,01,12,01,21,2.30
2011,01,12,01,22,2.30
2011,01,12,01,23,2.30
2011,01,12,01,24,2.40
2011,01,12,01,25,2.40
2011,01,12,01,26,2.40
2011,01,12,01,27,2.40
2011,01,12,01,28,2.40
2011,01,12,01,29,2.40
2011,01,12,01,30,2.40
2011,01,12,01,31,2.40
2011,01,12,01,32,2.40
2011,01,12,01,33,2.40
2011,01,12,01,34,2.40
2011,01,12,01,35,2.40
2011,01,12,01,36,2.40
2011,01,12,01,37,2.50
2011,01,12,01,38,2.50
2011,01,12,01,39,2.50
2011,01,12,01,40,2.50
2011,01,12,01,41,2.50
2011,01,12,01,42,2.60
2011,01,12,01,43,2.60
2011,01,12,01,44,2.60
2011,01,12,01,45,2.60
2011,01,12,01,46,2.70
2011,01,12,01,47,2.70
2011,01,12,01,48,2.70
2011,01,12,01,49,2.70
2011,01,12,01,50,2.70
2011,01,12,01,51,2.80
2011,01,12,01,52,2.80
2011,01,12,01,53,2.80
2011,01,12,01,54,2.80
2011,01,12,01,55,2.80
2011,01,12,01,56,2.80
2011,01,12,01,57,2.80
2011,01,12,01,58,2.80
2011,01,12,01,59,2.80
2011,01,12,02,00,2.80
2011,01,12,02,01,2.80
2011,01,12,02,02,2.80
2011,01,12,02,03,2.80
2011,01,12,02,04,2.80
2011,01,12,02,05,2.80
2011,01,12,02,06,2.80
2011,01,12,02,07,2.80
2011,01,12,02,08,2.90
2011,01,12,02,09,2.90
2011,01,12,02,10,2.90
2011,01,12,02,11,2.90
2011,01,12,02,12,2.90
2011,01,12,02,13,2.90
2011,01,12,02,14,2.90
2011,01,12,02,15,2.90
2011,01,12,02,16,2.90
2011,01,12,02,17,2.90
2011,01,12,02,18,2.90
2011,01,12,02,19,2.90
2011,01,12,02,20,2.90
2011,01,12,02,21,2.90
2011,01,12,02,22,3.00
2011,01,12,02,23,3.00
2011,01,12,02,24,2.90
2011,01,12,02,25,2.90
2011,01,12,02,26,2.90
2011,01,12,02,27,2.90
2011,01,12,02,28,3.00
2011,01,12,02,29,3.00
2011,01,12,02,30,3.10
2011,01,12,02,31,3.10
2011,01,12,02,32,3.10
2011,01,12,02,33,3.10
2011,01,12,02,34,3.10
2011,01,12,02,35,3.10
2011,01,12,02,36,3.00
2011,01,12,02,37,3.00
2011,01,12,02,38,3.10
2011,01,12,02,39,3.10
2011,01,12,02,40,3.10
2011,01,12,02,41,3.10
2011,01,12,02,42,3.10
2011,01,12,02,43,3.10
2011,01,12,02,44,3.10
2011,01,12,02,45,3.10
2011,01,12,02,46,3.10
2011,01,12,02,47,3.10
2011,01,12,02,48,3.10
2011,01,12,02,49,3.10
2011,01,12,02,50,3.10
2011,01,12,02,51,3.10
2011,01,12,02,52,3.20
2011,01,12,02,53,3.20
2011,01,12,02,54,3.20
2011,01,12,02,55,3.20
2011,01,12,02,56,3.20
2011,01,12,02,57,3.20
2011,01,12,02,58,3.20
2011,01,12,02,59,3.20
2011,01,12,03,00,3.20
2011,01,12,03,01,3.20
2011,01,12,03,02,3.20
2011,01,12,03,03,3.20
2011,01,12,03,04,3.20
2011,01,12,03,05,3.20
2011,01,12,03,06,3.20
2011,01,12,03,07,3.20
2011,01,12,03,08,3.20
2011,01,12,03,09,3.20
2011,01,12,03,10,3.20
2011,01,12,03,11,3.20
2011,01,12,03,12,3.20
2011,01,12,03,13,3.20
2011,01,12,03,14,3.20
2011,01,12,03,15,3.20
2011,01,12,03,16,3.20
2011,01,12,03,17,3.20
2011,01,12,03,18,3.30
2011,01,12,03,19,3.30
2011,01,12,03,20,3.30
2011,01,12,03,21,3.30
2011,01,12,03,22,3.30
2011,01,12,03,23,3.30
2011,01,12,03,24,3.30
2011,01,12,03,25,3.30
2011,01,12,03,26,3.30
2011,01,12,03,27,3.30
2011,01,12,03,28,3.40
2011,01,12,03,29,3.40
2011,01,12,03,30,3.40
2011,01,12,03,31,3.40
2011,01,12,03,32,3.40
2011,01,12,03,33,3.40
2011,01,12,03,34,3.40
2011,01,12,03,35,3.40
2011,01,12,03,36,3.40
2011,01,12,03,37,3.40
2011,01,12,03,38,3.40
2011,01,12,03,39,3.40
2011,01,12,03,40,3.40
2011,01,12,03,41,3.40
2011,01,12,03,42,3.40
2011,01,12,03,43,3.40
2011,01,12,03,44,3.40
2011,01,12,03,45,3.40
2011,01,12,03,46,3.40
2011,01,12,03,47,3.40
2011,01,12,03,48,3.40
2011,01,12,03,49,3.40
2011,01,12,03,50,3.40
2011,01,12,03,51,3.40
2011,01,12,03,52,3.40
2011,01,12,03,53,3.40
2011,01,12,03,54,3.40
2011,01,12,03,55,3.40
2011,01,12,03,56,3.50
2011,01,12,03,57,3.50
2011,01,12,03,58,3.50
2011,01,12,03,59,3.50
2011,01,12,04,00,3.50
2011,01,12,04,01,3.50
2011,01,12,04,02,3.50
2011,01,12,04,03,3.50
2011,01,12,04,04,3.50
2011,01,12,04,05,3.50
2011,01,12,04,06,3.50
2011,01,12,04,07,3.50
2011,01,12,04,08,3.50
2011,01,12,04,09,3.50
2011,01,12,04,10,3.50
2011,01,12,04,11,3.50
2011,01,12,04,12,3.50
2011,01,12,04,13,3.60
2011,01,12,04,14,3.60
2011,01,12,04,15,3.60
2011,01,12,04,16,3.60
2011,01,12,04,17,3.60
2011,01,12,04,18,3.60
2011,01,12,04,19,3.60
2011,01,12,04,20,3.60
2011,01,12,04,21,3.60
2011,01,12,04,22,3.60
2011,01,12,04,23,3.60
2011,01,12,04,24,3.60
2011,01,12,04,25,3.60
2011,01,12,04,26,3.60
2011,01,12,04,27,3.60
2011,01,12,04,28,3.60
2011,01,12,04,29,3.60
2011,01,12,04,30,3.60
2011,01,12,04,31,3.60
2011,01,12,04,32,3.60
2011,01,12,04,33,3.60
2011,01,12,04,34,3.70
2011,01,12,04,35,3.70
2011,01,12,04,36,3.70
2011,01,12,04,37,3.70
2011,01,12,04,38,3.70
2011,01,12,04,39,3.70
2011,01,12,04,40,3.70
2011,01,12,04,41,3.70
2011,01,12,04,42,3.70
2011,01,12,04,43,3.70
2011,01,12,04,44,3.70
2011,01,12,04,45,3.70
2011,01,12,04,46,3.70
2011,01,12,04,47,3.80
2011,01,12,04,48,3.80
2011,01,12,04,49,3.80
2011,01,12,04,50,3.80
2011,01,12,04,51,3.80
2011,01,12,04,52,3.80
2011,01,12,04,53,3.80
2011,01,12,04,54,3.90
2011,01,12,04,55,3.90
2011,01,12,04,56,3.90
2011,01,12,04,57,3.90
2011,01,12,04,58,3.90
2011,01,12,04,59,3.90
2011,01,12,05,00,3.90
2011,01,12,05,01,3.90
2011,01,12,05,02,3.90
2011,01,12,05,03,3.90
2011,01,12,05,04,3.90
2011,01,12,05,05,3.90
2011,01,12,05,06,3.90
2011,01,12,05,07,3.90
2011,01,12,05,08,3.90
2011,01,12,05,09,3.90
2011,01,12,05,10,4.00
2011,01,12,05,11,4.00
2011,01,12,05,12,4.00
2011,01,12,05,13,4.00
2011,01,12,05,14,4.00
2011,01,12,05,15,4.10
2011,01,12,05,16,4.10
2011,01,12,05,17,4.10
2011,01,12,05,18,4.10
2011,01,12,05,19,4.10
2011,01,12,05,20,4.10
2011,01,12,05,21,4.10
2011,01,12,05,22,4.10
2011,01,12,05,23,4.20
2011,01,12,05,24,4.20
2011,01,12,05,25,4.20
2011,01,12,05,26,4.20
2011,01,12,05,27,4.20
2011,01,12,05,28,4.20
2011,01,12,05,29,4.20
2011,01,12,05,30,4.20
2011,01,12,05,31,4.20
2011,01,12,05,32,4.20
2011,01,12,05,33,4.20
2011,01,12,05,34,4.20
2011,01,12,05,35,4.20
2011,01,12,05,36,4.20
2011,01,12,05,37,4.30
2011,01,12,05,38,4.30
2011,01,12,05,39,4.30
2011,01,12,05,40,4.30
2011,01,12,05,41,4.30
2011,01,12,05,42,4.30
2011,01,12,05,43,4.30
2011,01,12,05,44,4.30
2011,01,12,05,45,4.30
2011,01,12,05,46,4.30
2011,01,12,05,47,4.30
2011,01,12,05,48,4.30
2011,01,12,05,49,4.30
2011,01,12,05,50,4.30
2011,01,12,05,51,4.30
2011,01,12,05,52,4.30
2011,01,12,05,53,4.30
2011,01,12,05,54,4.30
2011,01,12,05,55,4.30
2011,01,12,05,56,4.30
2011,01,12,05,57,4.40
2011,01,12,05,58,4.40
2011,01,12,05,59,4.40
2011,01,12,06,00,4.40
2011,01,12,06,01,4.40
2011,01,12,06,02,4.40
2011,01,12,06,03,4.40
2011,01,12,06,04,4.40
2011,01,12,06,05,4.40
2011,01,12,06,06,4.40
2011,01,12,06,07,4.50
2011,01,12,06,08,4.50
2011,01,12,06,09,4.50
2011,01,12,06,10,4.50
2011,01,12,06,11,4.60
2011,01,12,06,12,4.60
2011,01,12,06,13,4.60
2011,01,12,06,14,4.60
2011,01,12,06,15,4.60
2011,01,12,06,16,4.60
2011,01,12,06,17,4.60
2011,01,12,06,18,4.60
2011,01,12,06,19,4.60
2011,01,12,06,20,4.60
2011,01,12,06,21,4.60
2011,01,12,06,22,4.60
2011,01,12,06,23,4.70
2011,01,12,06,24,4.70
2011,01,12,06,25,4.70
2011,01,12,06,26,4.70
2011,01,12,06,27,4.70
2011,01,12,06,28,4.70
2011,01,12,06,29,4.70
2011,01,12,06,30,4.70
2011,01,12,06,31,4.70
2011,01,12,06,32,4.80
2011,01,12,06,33,4.80
2011,01,12,06,34,4.80
2011,01,12,06,35,4.80
2011,01,12,06,36,4.80
2011,01,12,06,37,4.80
2011,01,12,06,38,4.80
2011,01,12,06,39,4.80
2011,01,12,06,40,4.80
2011,01,12,06,41,4.80
2011,01,12,06,42,4.80
2011,01,12,06,43,4.90
2011,01,12,06,44,4.90
2011,01,12,06,45,4.90
2011,01,12,06,46,4.90
2011,01,12,06,47,4.90
2011,01,12,06,48,5.00
2011,01,12,06,49,5.00
2011,01,12,06,50,5.00
2011,01,12,06,51,5.00
2011,01,12,06,52,5.10
2011,01,12,06,53,5.10
2011,01,12,06,54,5.10
2011,01,12,06,55,5.10
2011,01,12,06,56,5.10
2011,01,12,06,57,5.10
2011,01,12,06,58,5.20
2011,01,12,06,59,5.20
2011,01,12,07,00,5.20
2011,01,12,07,01,5.20
2011,01,12,07,02,5.20
2011,01,12,07,03,5.20
2011,01,12,07,04,5.20
2011,01,12,07,05,5.20
2011,01,12,07,06,5.20
2011,01,12,07,07,5.20
2011,01,12,07,08,5.20
2011,01,12,07,09,5.20
2011,01,12,07,10,5.20
2011,01,12,07,11,5.20
2011,01,12,07,12,5.20
2011,01,12,07,13,5.20
2011,01,12,07,14,5.20
2011,01,12,07,15,5.30
2011,01,12,07,16,5.30
2011,01,12,07,17,5.30
2011,01,12,07,18,5.30
2011,01,12,07,19,5.30
2011,01,12,07,20,5.30
2011,01,12,07,21,5.30
2011,01,12,07,22,5.30
2011,01,12,07,23,5.30
2011,01,12,07,24,5.30
2011,01,12,07,25,5.30
2011,01,12,07,26,5.30
2011,01,12,07,27,5.30
2011,01,12,07,28,5.30
2011,01,12,07,29,5.30
2011,01,12,07,30,5.30
2011,01,12,07,31,5.30
2011,01,12,07,32,5.30
2011,01,12,07,33,5.30
2011,01,12,07,34,5.30
2011,01,12,07,35,5.30
2011,01,12,07,36,5.30
2011,01,12,07,37,5.30
2011,01,12,07,38,5.30
2011,01,12,07,39,5.30
2011,01,12,07,40,5.40
2011,01,12,07,41,5.40
2011,01,12,07,42,5.40
2011,01,12,07,43,5.40
2011,01,12,07,44,5.40
2011,01,12,07,45,5.40
2011,01,12,07,46,5.40
2011,01,12,07,47,5.50
2011,01,12,07,48,5.50
2011,01,12,07,49,5.50
2011,01,12,07,50,5.60
2011,01,12,07,51,5.60
2011,01,12,07,52,5.60
2011,01,12,07,53,5.60
2011,01,12,07,54,5.60
2011,01,12,07,55,5.60
2011,01,12,07,56,5.70
2011,01,12,07,57,5.70
2011,01,12,07,58,5.70
2011,01,12,07,59,5.80
2011,01,12,08,00,5.80
2011,01,12,08,01,5.80
2011,01,12,08,02,5.80
2011,01,12,08,03,5.80
2011,01,12,08,04,5.80
2011,01,12,08,05,5.80
2011,01,12,08,06,5.80
2011,01,12,08,07,5.80
2011,01,12,08,08,5.80
2011,01,12,08,09,5.80
2011,01,12,08,10,5.80
2011,01,12,08,11,5.90
2011,01,12,08,12,5.80
2011,01,12,08,13,5.80
2011,01,12,08,14,5.80
2011,01,12,08,15,5.80
2011,01,12,08,16,5.80
2011,01,12,08,17,5.80
2011,01,12,08,18,5.80
2011,01,12,08,19,5.80
2011,01,12,08,20,5.80
2011,01,12,08,21,5.80
2011,01,12,08,22,5.80
2011,01,12,08,23,5.80
2011,01,12,08,24,5.90
2011,01,12,08,25,5.90
2011,01,12,08,26,5.90
2011,01,12,08,27,5.90
2011,01,12,08,28,5.90
2011,01,12,08,29,5.90
2011,01,12,08,30,5.90
2011,01,12,08,31,5.90
2011,01,12,08,32,5.90
2011,01,12,08,33,5.90
2011,01,12,08,34,5.90
2011,01,12,08,35,6.00
2011,01,12,08,36,6.00
2011,01,12,08,37,6.10
2011,01,12,08,38,6.10
2011,01,12,08,39,6.20
2011,01,12,08,40,6.20
2011,01,12,08,41,6.30
2011,01,12,08,42,6.30
2011,01,12,08,43,6.30
2011,01,12,08,44,6.30
2011,01,12,08,45,6.30
2011,01,12,08,46,6.30
2011,01,12,08,47,6.20
2011,01,12,08,48,6.20
2011,01,12,08,49,6.20
2011,01,12,08,50,6.20
2011,01,12,08,51,6.20
2011,01,12,08,52,6.20
2011,01,12,08,53,6.20
2011,01,12,08,54,6.20
2011,01,12,08,55,6.20
2011,01,12,08,56,6.20
2011,01,12,08,57,6.20
2011,01,12,08,58,6.20
2011,01,12,08,59,6.20
2011,01,12,09,00,6.20
2011,01,12,09,01,6.20
2011,01,12,09,02,6.30
2011,01,12,09,03,6.30
2011,01,12,09,04,6.30
2011,01,12,09,05,6.40
2011,01,12,09,06,6.50
2011,01,12,09,07,6.50
2011,01,12,09,08,6.50
2011,01,12,09,09,6.50
2011,01,12,09,10,6.70
2011,01,12,09,11,6.90
2011,01,12,09,12,7.00
2011,01,12,09,13,7.10
2011,01,12,09,14,7.10
2011,01,12,09,15,7.10
2011,01,12,09,16,7.10
2011,01,12,09,17,7.20
2011,01,12,09,18,7.30
2011,01,12,09,19,7.30
2011,01,12,09,20,7.40
2011,01,12,09,21,7.40
2011,01,12,09,22,7.30
2011,01,12,09,23,7.30
2011,01,12,09,24,7.30
2011,01,12,09,25,7.30
2011,01,12,09,26,7.20
2011,01,12,09,27,7.20
2011,01,12,09,28,7.10
2011,01,12,09,29,7.00
2011,01,12,09,30,7.00
2011,01,12,09,31,6.90
2011,01,12,09,32,6.90
2011,01,12,09,33,6.80
2011,01,12,09,34,6.80
2011,01,12,09,35,6.80
2011,01,12,09,36,6.80
2011,01,12,09,37,6.80
2011,01,12,09,38,6.80
2011,01,12,09,39,6.80
2011,01,12,09,40,6.80
2011,01,12,09,41,6.80
2011,01,12,09,42,6.80
2011,01,12,09,43,6.90
2011,01,12,09,44,6.90
2011,01,12,09,45,7.00
2011,01,12,09,46,7.00
2011,01,12,09,47,7.10
2011,01,12,09,48,7.30
2011,01,12,09,49,7.60
2011,01,12,09,50,7.80
2011,01,12,09,51,8.10
2011,01,12,09,52,8.30
2011,01,12,09,53,8.50
2011,01,12,09,54,8.60
2011,01,12,09,55,8.70
2011,01,12,09,56,8.80
2011,01,12,09,57,8.90
2011,01,12,09,58,9.00
2011,01,12,09,59,9.00
2011,01,12,10,00,9.00
2011,01,12,10,01,9.10
2011,01,12,10,02,9.00
2011,01,12,10,03,9.00
2011,01,12,10,04,9.10
2011,01,12,10,05,9.00
2011,01,12,10,06,9.10
2011,01,12,10,07,9.10
2011,01,12,10,08,9.10
2011,01,12,10,09,9.10
2011,01,12,10,10,9.10
2011,01,12,10,11,9.10
2011,01,12,10,12,9.10
2011,01,12,10,13,9.10
2011,01,12,10,14,9.10
2011,01,12,10,15,9.10
2011,01,12,10,16,9.20
2011,01,12,10,17,9.20
2011,01,12,10,18,9.20
2011,01,12,10,19,9.20
2011,01,12,10,20,9.20
2011,01,12,10,21,9.20
2011,01,12,10,22,9.20
2011,01,12,10,23,9.20
2011,01,12,10,24,9.20
2011,01,12,10,25,9.20
2011,01,12,10,26,9.30
2011,01,12,10,27,9.30
2011,01,12,10,28,9.30
2011,01,12,10,29,9.30
2011,01,12,10,30,9.30
2011,01,12,10,31,9.40
2011,01,12,10,32,9.30
2011,01,12,10,33,9.40
2011,01,12,10,34,9.40
2011,01,12,10,35,9.40
2011,01,12,10,36,9.40
2011,01,12,10,37,9.40
2011,01,12,10,38,9.40
2011,01,12,10,39,9.40
2011,01,12,10,40,9.40
2011,01,12,10,41,9.40
2011,01,12,10,42,9.50
2011,01,12,10,43,9.50
2011,01,12,10,44,9.50
2011,01,12,10,45,9.50
2011,01,12,10,46,9.50
2011,01,12,10,47,9.50
2011,01,12,10,48,9.50
2011,01,12,10,49,9.40
2011,01,12,10,50,9.40
2011,01,12,10,51,9.40
2011,01,12,10,52,9.40
2011,01,12,10,53,9.40
2011,01,12,10,54,9.40
2011,01,12,10,55,9.40
2011,01,12,10,56,9.40
2011,01,12,10,57,9.40
2011,01,12,10,58,9.40
2011,01,12,10,59,9.40
2011,01,12,11,00,9.40
2011,01,12,11,01,9.40
2011,01,12,11,02,9.40
2011,01,12,11,03,9.50
2011,01,12,11,04,9.50
2011,01,12,11,05,9.50
2011,01,12,11,06,9.50
2011,01,12,11,07,9.50
2011,01,12,11,08,9.50
2011,01,12,11,09,9.50
2011,01,12,11,10,9.50
2011,01,12,11,11,9.50
2011,01,12,11,12,9.40
2011,01,12,11,13,9.40
2011,01,12,11,14,9.40
2011,01,12,11,15,9.40
2011,01,12,11,16,9.40
2011,01,12,11,17,9.40
2011,01,12,11,18,9.40
2011,01,12,11,19,9.40
2011,01,12,11,20,9.30
2011,01,12,11,21,9.30
2011,01,12,11,22,9.30
2011,01,12,11,23,9.30
2011,01,12,11,24,9.20
2011,01,12,11,25,9.20
2011,01,12,11,26,9.10
2011,01,12,11,27,9.10
2011,01,12,11,28,9.10
2011,01,12,11,29,9.10
2011,01,12,11,30,9.00
2011,01,12,11,31,9.00
2011,01,12,11,32,9.00
2011,01,12,11,33,8.90
2011,01,12,11,34,8.90
2011,01,12,11,35,8.90
2011,01,12,11,36,8.90
2011,01,12,11,37,8.80
2011,01,12,11,38,8.80
2011,01,12,11,39,8.80
2011,01,12,11,40,8.80
2011,01,12,11,41,8.80
2011,01,12,11,42,8.70
2011,01,12,11,43,8.70
2011,01,12,11,44,8.70
2011,01,12,11,45,8.60
2011,01,12,11,46,8.60
2011,01,12,11,47,8.60
2011,01,12,11,48,8.60
2011,01,12,11,49,8.50
2011,01,12,11,50,8.50
2011,01,12,11,51,8.50
2011,01,12,11,52,8.50
2011,01,12,11,53,8.50
2011,01,12,11,54,8.40
2011,01,12,11,55,8.40
2011,01,12,11,56,8.40
2011,01,12,11,57,8.40
2011,01,12,11,58,8.40
2011,01,12,11,59,8.40
2011,01,12,12,00,8.40
2011,01,12,12,01,8.30
2011,01,12,12,02,8.30
2011,01,12,12,03,8.30
2011,01,12,12,04,8.30
2011,01,12,12,05,8.30
2011,01,12,12,06,8.30
2011,01,12,12,07,8.30
2011,01,12,12,08,8.30
2011,01,12,12,09,8.30
2011,01,12,12,10,8.30
2011,01,12,12,11,8.30
2011,01,12,12,12,8.30
2011,01,12,12,13,8.30
2011,01,12,12,14,8.30
2011,01,12,12,15,8.30
2011,01,12,12,16,8.30
2011,01,12,12,17,8.30
2011,01,12,12,18,8.30
2011,01,12,12,19,8.30
2011,01,12,12,20,8.20
2011,01,12,12,21,8.20
2011,01,12,12,22,8.20
2011,01,12,12,23,8.20
2011,01,12,12,24,8.20
2011,01,12,12,25,8.20
2011,01,12,12,26,8.20
2011,01,12,12,27,8.20
2011,01,12,12,28,8.30
2011,01,12,12,29,8.30
2011,01,12,12,30,8.30
2011,01,12,12,31,8.30
2011,01,12,12,32,8.30
2011,01,12,12,33,8.30
2011,01,12,12,34,8.30
2011,01,12,12,35,8.30
2011,01,12,12,36,8.30
2011,01,12,12,37,8.30
2011,01,12,12,38,8.30
2011,01,12,12,39,8.30
2011,01,12,12,40,8.30
2011,01,12,12,41,8.30
2011,01,12,12,42,8.30
2011,01,12,12,43,8.30
2011,01,12,12,44,8.30
2011,01,12,12,45,8.30
2011,01,12,12,46,8.30
2011,01,12,12,47,8.30
2011,01,12,12,48,8.20
2011,01,12,12,49,8.20
2011,01,12,12,50,8.20
2011,01,12,12,51,8.20
2011,01,12,12,52,8.20
2011,01,12,12,53,8.30
2011,01,12,12,54,8.30
2011,01,12,12,55,8.30
2011,01,12,12,56,8.30
2011,01,12,12,57,8.30
2011,01,12,12,58,8.30
2011,01,12,12,59,8.30
2011,01,12,13,00,8.30
2011,01,12,13,01,8.30
2011,01,12,13,02,8.30
2011,01,12,13,03,8.30
2011,01,12,13,04,8.30
2011,01,12,13,05,8.30
2011,01,12,13,06,8.30
2011,01,12,13,07,8.30
2011,01,12,13,08,8.30
2011,01,12,13,09,8.30
2011,01,12,13,10,8.30
2011,01,12,13,11,8.30
2011,01,12,13,12,8.30
2011,01,12,13,13,8.30
2011,01,12,13,14,8.30
2011,01,12,13,15,8.30
2011,01,12,13,16,8.30
2011,01,12,13,17,8.30
2011,01,12,13,18,8.30
2011,01,12,13,19,8.30
2011,01,12,13,20,8.30
2011,01,12,13,21,8.30
2011,01,12,13,22,8.30
2011,01,12,13,23,8.30
2011,01,12,13,24,8.30
2011,01,12,13,25,8.30
2011,01,12,13,26,8.30
2011,01,12,13,27,8.40
2011,01,12,13,28,8.40
2011,01,12,13,29,8.40
2011,01,12,13,30,8.40
2011,01,12,13,31,8.40
2011,01,12,13,32,8.40
2011,01,12,13,33,8.40
2011,01,12,13,34,8.40
2011,01,12,13,35,8.40
2011,01,12,13,36,8.40
2011,01,12,13,37,8.40
2011,01,12,13,38,8.40
2011,01,12,13,39,8.40
2011,01,12,13,40,8.40
2011,01,12,13,41,8.40
2011,01,12,13,42,8.30
2011,01,12,13,43,8.30
2011,01,12,13,44,8.30
2011,01,12,13,45,8.30
2011,01,12,13,46,8.30
2011,01,12,13,47,8.30
2011,01,12,13,48,8.30
2011,01,12,13,49,8.20
2011,01,12,13,50,8.20
2011,01,12,13,51,8.20
2011,01,12,13,52,8.10
2011,01,12,13,53,8.10
2011,01,12,13,54,8.10
2011,01,12,13,55,8.10
2011,01,12,13,56,8.10
2011,01,12,13,57,8.00
2011,01,12,13,58,8.00
2011,01,12,13,59,8.00
2011,01,12,14,00,7.90
2011,01,12,14,01,7.90
2011,01,12,14,02,7.90
2011,01,12,14,03,7.90
2011,01,12,14,04,7.90
2011,01,12,14,05,7.80
2011,01,12,14,06,7.80
2011,01,12,14,07,7.80
2011,01,12,14,08,7.80
2011,01,12,14,09,7.70
2011,01,12,14,10,7.70
2011,01,12,14,11,7.70
2011,01,12,14,12,7.70
2011,01,12,14,13,7.70
2011,01,12,14,14,7.70
2011,01,12,14,15,7.70
2011,01,12,14,16,7.60
2011,01,12,14,17,7.60
2011,01,12,14,18,7.60
2011,01,12,14,19,7.60
2011,01,12,14,20,7.60
2011,01,12,14,21,7.60
2011,01,12,14,22,7.60
2011,01,12,14,23,7.60
2011,01,12,14,24,7.60
2011,01,12,14,25,7.50
2011,01,12,14,26,7.50
2011,01,12,14,27,7.40
2011,01,12,14,28,7.40
2011,01,12,14,29,7.40
2011,01,12,14,30,7.30
2011,01,12,14,31,7.30
2011,01,12,14,32,7.30
2011,01,12,14,33,7.30
2011,01,12,14,34,7.30
2011,01,12,14,35,7.30
2011,01,12,14,36,7.30
2011,01,12,14,37,7.30
2011,01,12,14,38,7.30
2011,01,12,14,39,7.30
2011,01,12,14,40,7.30
2011,01,12,14,41,7.30
2011,01,12,14,42,7.30
2011,01,12,14,43,7.30
2011,01,12,14,44,7.30
2011,01,12,14,45,7.30
2011,01,12,14,46,7.20
2011,01,12,14,47,7.20
2011,01,12,14,48,7.20
2011,01,12,14,49,7.20
2011,01,12,14,50,7.20
2011,01,12,14,51,7.20
2011,01,12,14,52,7.20
2011,01,12,14,53,7.10
2011,01,12,14,54,7.10
2011,01,12,14,55,7.10
2011,01,12,14,56,7.10
2011,01,12,14,57,7.10
2011,01,12,14,58,7.10
2011,01,12,14,59,7.00
2011,01,12,15,00,7.00
2011,01,12,15,01,7.00
2011,01,12,15,02,7.00
2011,01,12,15,03,7.00
2011,01,12,15,04,7.00
2011,01,12,15,05,7.00
2011,01,12,15,06,7.00
2011,01,12,15,07,7.00
2011,01,12,15,08,7.00
2011,01,12,15,09,7.00
2011,01,12,15,10,7.10
2011,01,12,15,11,7.10
2011,01,12,15,12,7.10
2011,01,12,15,13,7.10
2011,01,12,15,14,7.10
2011,01,12,15,15,7.10
2011,01,12,15,16,7.10
2011,01,12,15,17,7.10
2011,01,12,15,18,7.10
2011,01,12,15,19,7.10
2011,01,12,15,20,7.10
2011,01,12,15,21,7.10
2011,01,12,15,22,7.10
2011,01,12,15,23,7.10
2011,01,12,15,24,7.10
2011,01,12,15,25,7.10
2011,01,12,15,26,7.10
2011,01,12,15,27,7.10
2011,01,12,15,28,7.10
2011,01,12,15,29,7.20
2011,01,12,15,30,7.20
2011,01,12,15,31,7.20
2011,01,12,15,32,7.20
2011,01,12,15,33,7.20
2011,01,12,15,34,7.20
2011,01,12,15,35,7.20
2011,01,12,15,36,7.20
2011,01,12,15,37,7.20
2011,01,12,15,38,7.20
2011,01,12,15,39,7.20
2011,01,12,15,40,7.20
2011,01,12,15,41,7.20
2011,01,12,15,42,7.20
2011,01,12,15,43,7.30
2011,01,12,15,44,7.30
2011,01,12,15,45,7.30
2011,01,12,15,46,7.30
2011,01,12,15,47,7.30
2011,01,12,15,48,7.30
2011,01,12,15,49,7.30
2011,01,12,15,50,7.30
2011,01,12,15,51,7.30
2011,01,12,15,52,7.30
2011,01,12,15,53,7.30
2011,01,12,15,54,7.30
2011,01,12,15,55,7.30
2011,01,12,15,56,7.30
2011,01,12,15,57,7.30
2011,01,12,15,58,7.20
2011,01,12,15,59,7.20
2011,01,12,16,00,7.20
2011,01,12,16,01,7.20
2011,01,12,16,02,7.20
2011,01,12,16,03,7.20
2011,01,12,16,04,7.20
2011,01,12,16,05,7.20
2011,01,12,16,06,7.20
2011,01,12,16,07,7.20
2011,01,12,16,08,7.20
2011,01,12,16,09,7.20
2011,01,12,16,10,7.20
2011,01,12,16,11,7.30
2011,01,12,16,12,7.30
2011,01,12,16,13,7.30
2011,01,12,16,14,7.30
2011,01,12,16,15,7.30
2011,01,12,16,16,7.30
2011,01,12,16,17,7.20
2011,01,12,16,18,7.20
2011,01,12,16,19,7.20
2011,01,12,16,20,7.20
2011,01,12,16,21,7.20
2011,01,12,16,22,7.20
2011,01,12,16,23,7.20
2011,01,12,16,24,7.20
2011,01,12,16,25,7.20
2011,01,12,16,26,7.20
2011,01,12,16,27,7.20
2011,01,12,16,28,7.20
2011,01,12,16,29,7.20
2011,01,12,16,30,7.20
2011,01,12,16,31,7.20
2011,01,12,16,32,7.20
2011,01,12,16,33,7.20
2011,01,12,16,34,7.20
2011,01,12,16,35,7.10
2011,01,12,16,36,7.10
2011,01,12,16,37,7.10
2011,01,12,16,38,7.10
2011,01,12,16,39,7.10
2011,01,12,16,40,7.10
2011,01,12,16,41,7.10
2011,01,12,16,42,7.10
2011,01,12,16,43,7.00
2011,01,12,16,44,7.00
2011,01,12,16,45,7.00
2011,01,12,16,46,7.00
2011,01,12,16,47,7.00
2011,01,12,16,48,7.00
2011,01,12,16,49,6.90
2011,01,12,16,50,6.90
2011,01,12,16,51,6.90
2011,01,12,16,52,6.90
2011,01,12,16,53,6.90
2011,01,12,16,54,6.90
2011,01,12,16,55,6.90
2011,01,12,16,56,6.90
2011,01,12,16,57,6.90
2011,01,12,16,58,6.90
2011,01,12,16,59,6.90
2011,01,12,17,00,6.90
2011,01,12,17,01,6.90
2011,01,12,17,02,6.90
2011,01,12,17,03,6.90
2011,01,12,17,04,6.90
2011,01,12,17,05,6.90
2011,01,12,17,06,6.90
2011,01,12,17,07,7.00
2011,01,12,17,08,6.90
2011,01,12,17,09,6.90
2011,01,12,17,10,6.90
2011,01,12,17,11,6.90
2011,01,12,17,12,6.90
2011,01,12,17,13,7.00
2011,01,12,17,14,7.00
2011,01,12,17,15,7.00
2011,01,12,17,16,7.00
2011,01,12,17,17,6.90
2011,01,12,17,18,6.90
2011,01,12,17,19,7.00
2011,01,12,17,20,6.90
2011,01,12,17,21,6.90
2011,01,12,17,22,6.90
2011,01,12,17,23,7.00
2011,01,12,17,24,7.00
2011,01,12,17,25,7.00
2011,01,12,17,26,6.90
2011,01,12,17,27,6.90
2011,01,12,17,28,6.90
2011,01,12,17,29,6.90
2011,01,12,17,30,6.90
2011,01,12,17,31,6.90
2011,01,12,17,32,7.00
2011,01,12,17,33,7.00
2011,01,12,17,34,7.00
2011,01,12,17,35,7.00
2011,01,12,17,36,7.00
2011,01,12,17,37,7.00
2011,01,12,17,38,7.00
2011,01,12,17,39,7.00
2011,01,12,17,40,7.00
2011,01,12,17,41,7.00
2011,01,12,17,42,7.00
2011,01,12,17,43,7.00
2011,01,12,17,44,7.00
2011,01,12,17,45,7.00
2011,01,12,17,46,6.90
2011,01,12,17,47,7.00
2011,01,12,17,48,7.00
2011,01,12,17,49,6.90
2011,01,12,17,50,6.90
2011,01,12,17,51,7.00
2011,01,12,17,52,7.00
2011,01,12,17,53,7.00
2011,01,12,17,54,7.00
2011,01,12,17,55,7.00
2011,01,12,17,56,7.00
2011,01,12,17,57,7.00
2011,01,12,17,58,7.00
2011,01,12,17,59,7.00
2011,01,12,18,00,7.00
2011,01,12,18,01,7.10
2011,01,12,18,02,7.10
2011,01,12,18,03,7.10
2011,01,12,18,04,7.10
2011,01,12,18,05,7.10
2011,01,12,18,06,7.10